ARIANE 1 DEB, 27732

Orbit data source: Space-Track

ARIANE 1 DEB, 27732 is space debris in HEO originally from a launch on Mon, 24 Dec 1979 UTC launched from the French Guiana (FRGUI). Debris objects in space refer to the collection of defunct objects orbiting the Earth. Examples of debris include non-operational satellites, rocket bodies, and fragments generated from explosions, collisions, or faulty payload assembly.

Not visible in the next 10 days
Identifier
27732, 1979-104S
Orbit
HEO
Country
Flag of FRFR
Related business
Manufacturer
Unknown
Mission
Spacecraft
Bus & Motor
Unknown
Mass
Unknown
Launch date (UTC)
1979-12-24 (46 years ago)
Launch vehicle
Unknown
Launch site
French Guiana (FRGUI)
Object type
Payload
Rocket body
Debris
Shape & HBR
Unknown shape, 0.3 m
Radar Cross Section
Medium (>0.1 m² and <1 m²)

Expand to show TLE details & history
Last TLE update: 1 day ago

TLE from 1 day ago
0 ARIANE 1 DEB
1 27732U 79104S   26061.21401203 -.00000378  00000-0  62608-2 0  9993
2 27732  16.4938  32.2627 7311150 136.0420 313.6024  1.93138620 83979
Epoch: 2026-03-02T05:08Z
TLE epoch observation values (Epoch: 2026-03-02T05:08:10.639Z)
Latitude
-0.00005°
Longitude
155.29382°
Altitude
20,250.547 km
Speed
3.912 km/s
True Right ascension
02h 09m 23s
True Declination
0° 00' 00"
Sunlit
Object was in daylight at epoch
Visualization orbit readout
Latitude
Unknown
Longitude
Unknown
Altitude
Unknown
Speed
Unknown
Apparent Right ascension
Unknown
Apparent Declination
Unknown
Sunlit
N/A
Visualization observer readout
Local Sidereal Time
19:08:03
Azimuth
Unknown
Elevation
Unknown
Doppler factor
Unknown
Orbital elements
Apogee altitude
40,779.639 km
Perigee altitude
946.633 km
Semi-major axis
27,241.273 km
Eccentricity
0.73112
Inclination
16.4938°
RAAN
32.2627°
Arg. of periapsis
136.042°
True anomaly
224.21478°
Mean anomaly
313.6024°
Eccentric anomaly
271.73173°
Mean motion
0.48273 °/min
Orbital period
745.76 mins
BSTAR
0.0062608
Loading maneuver chart data...
Computing Atmospheric mass density...
Loading historical data...
Loading historical data...
Loading historical data...
Loading historical data...
Loading historical data...
Loading historical data...
Loading historical data...

Documentation

Showing up to 5 results
|